Weather History for Covington, KY

Change the Weather History Date:

Sunday, November 10, 2013

  Actual Average Record
Temperature  
Mean Temperature 41 °F 48 °F  
Max Temperature 52 °F 57 °F 74 °F (1964)
Min Temperature 29 °F 38 °F 18 °F (1973)
Degree Days  
Heating Degree Days 24 18  
Month to date heating degree days 162 159  
Since 1 July heating degree days 495 521  
Cooling Degree Days 0 0  
Month to date cooling degree days 0 0  
Year to date cooling degree days 1150 1121  
Moisture  
Dew Point 30 °F    
Average Humidity 61    
Maximum Humidity 85    
Minimum Humidity 36    
Precipitation  
Precipitation 0.00 in 0.10 in 1.40 in (1891)
Month to date precipitation 0.44 1.06  
Year to date precipitation 42.82 36.78  
Snow  
Snow 0.00 in 0.00 in 0.30 in (1948)
Month to date snowfall 0.0 0.1  
Since 1 July snowfall T 0.5  
Since 1 September snowfall T 0.5  
Snow Depth 0.00 in    
Sea Level Pressure  
Sea Level Pressure 30.27 in    
Wind  
Wind Speed 10 mph (WNW)    
Max Wind Speed 23 mph    
Max Gust Speed 28 mph    
Visibility 10 miles    
Events      
T = Trace of Precipitation, MM = Missing Value Source: NWS Daily Summary

Daily Weather History Graph

Daily Weather History Graph

Search for Another Location

Airport:

Trip Planner

Search our weather history database for the weather conditions in past years. The results will help you decide how hot, cold, wet, or windy it might be!

Date:

Astronomy

Nov. 10, 2013 Rise Set
Actual Time 7:16 AM EST 5:28 PM EST
Civil Twilight 6:48 AM EST 5:56 PM EST
Nautical Twilight 6:16 AM EST 6:28 PM EST
Astronomical Twilight 5:44 AM EST 7:00 PM EST
Moon 1:30 PM EST (11/10) No Moon Set
Length of Visible Light 11h 08m
Length of Day
10h 12m
First Quarter, 55% of the Moon is Illuminated
Nov 10
First Quarter
Nov 17
Full
Nov 25
Last Quarter
Dec 2
New
Dec 9
First Quarter

Hourly Weather History & Observations

Time (EST) Temp. Windchill Dew Point Humidity Pressure Visibility Wind Dir Wind Speed Gust Speed Precip Events Conditions
12:52 AM 50.0 °F - 39.0 °F 66% 30.12 in 10.0 mi WSW 9.2 mph - N/A   Clear
1:52 AM 48.9 °F - 39.9 °F 71% 30.13 in 10.0 mi WSW 9.2 mph - N/A   Clear
2:52 AM 48.0 °F - 39.9 °F 74% 30.14 in 10.0 mi WSW 6.9 mph - N/A   Clear
4:52 AM 44.1 °F 40.8 °F 37.9 °F 79% 30.16 in 10.0 mi West 5.8 mph - N/A   Clear
5:52 AM 45.0 °F 39.7 °F 35.1 °F 68% 30.19 in 10.0 mi West 10.4 mph - N/A   Clear
6:52 AM 43.0 °F 36.8 °F 33.1 °F 68% 30.22 in 10.0 mi WNW 11.5 mph - N/A   Clear
7:52 AM 42.1 °F 34.2 °F 32.0 °F 67% 30.25 in 10.0 mi WNW 16.1 mph 20.7 mph N/A   Partly Cloudy
8:52 AM 43.0 °F 35.1 °F 30.0 °F 60% 30.28 in 10.0 mi NW 17.3 mph 23.0 mph N/A   Partly Cloudy
9:52 AM 46.0 °F 39.0 °F 27.0 °F 47% 30.30 in 10.0 mi NW 17.3 mph - N/A   Partly Cloudy
10:52 AM 48.9 °F - 25.0 °F 39% 30.31 in 10.0 mi NW 16.1 mph - N/A   Partly Cloudy
11:52 AM 50.0 °F - 24.1 °F 36% 30.32 in 10.0 mi NW 16.1 mph - N/A   Clear
12:52 PM 51.1 °F - 26.1 °F 38% 30.31 in 10.0 mi WNW 18.4 mph 26.5 mph N/A   Partly Cloudy
1:52 PM 51.1 °F - 27.0 °F 39% 30.30 in 10.0 mi NW 15.0 mph 23.0 mph N/A   Partly Cloudy
2:52 PM 51.1 °F - 28.0 °F 41% 30.30 in 10.0 mi NW 12.7 mph - N/A   Clear
3:52 PM 50.0 °F - 28.0 °F 43% 30.31 in 10.0 mi NW 12.7 mph - N/A   Clear
4:52 PM 48.0 °F - 28.9 °F 48% 30.33 in 10.0 mi NW 9.2 mph - N/A   Clear
5:52 PM 45.0 °F 42.6 °F 28.0 °F 52% 30.33 in 10.0 mi NNW 4.6 mph - N/A   Clear
6:52 PM 44.1 °F 41.5 °F 28.0 °F 53% 30.35 in 10.0 mi NNW 4.6 mph - N/A   Clear
7:52 PM 39.9 °F - 28.0 °F 63% 30.36 in 10.0 mi Calm Calm - N/A   Clear
8:52 PM 35.1 °F - 28.0 °F 76% 30.36 in 10.0 mi Calm Calm - N/A   Clear
9:52 PM 34.0 °F - 28.0 °F 79% 30.36 in 10.0 mi Calm Calm - N/A   Clear
10:52 PM 30.0 °F 26.5 °F 27.0 °F 88% 30.35 in 10.0 mi South 3.5 mph - N/A   Clear
11:52 PM 30.0 °F - 28.0 °F 92% 30.31 in 9.0 mi Calm Calm - N/A   Partly Cloudy